Weather History for Pendleton, OR

Change the Weather History Date:

Thursday, February 21, 2013

  Actual Average Record
Temperature  
Mean Temperature 38 °F 39 °F  
Max Temperature 45 °F 48 °F 69 °F (1988)
Min Temperature 30 °F 31 °F 2 °F (1894)
Degree Days  
Heating Degree Days 27 26  
Month to date heating degree days 541 569  
Since 1 July heating degree days 3563 3727  
Cooling Degree Days 0 0  
Month to date cooling degree days 0 0  
Year to date cooling degree days 0 0  
Moisture  
Dew Point 29 °F    
Average Humidity 67    
Maximum Humidity 85    
Minimum Humidity 49    
Precipitation  
Precipitation T in 0.04 in 0.43 in (1968)
Month to date precipitation 0.01 0.82  
Year to date precipitation 0.99 2.25  
Snow  
Snow 0.00 in 0.10 in 0.30 in (1974)
Month to date snowfall 0.0 2.6  
Year to date snowfall 0.1 6.3  
Since 1 July snowfall 1.9 13.8  
Snow Depth 0.00 in    
Sea Level Pressure  
Sea Level Pressure 30.05 in    
Wind  
Wind Speed 12 mph (SSW)    
Max Wind Speed 31 mph    
Max Gust Speed 36 mph    
Visibility 10 miles    
Events Rain    
T = Trace of Precipitation, MM = Missing Value Source: NWS Daily Summary

Daily Weather History Graph

Daily Weather History Graph

Search for Another Location

Airport:

Trip Planner

Search our weather history database for the weather conditions in past years. The results will help you decide how hot, cold, wet, or windy it might be!

Date:

Astronomy

Feb. 21, 2013 Rise Set
Actual Time 6:47 AM PST 5:31 PM PST
Civil Twilight 6:17 AM PST 6:01 PM PST
Nautical Twilight 5:42 AM PST 6:36 PM PST
Astronomical Twilight 5:08 AM PST 7:10 PM PST
Moon 1:42 PM PST (2/21) 4:03 AM PST (2/21)
Length of Visible Light 11h 44m
Length of Day
10h 44m
Waxing Gibbous, 84% of the Moon is Illuminated
Feb 21
Waxing Gibbous
Feb 25
Full
Mar 4
Last Quarter
Mar 11
New
Mar 19
First Quarter

Hourly Weather History & Observations

Time (PST) Temp. Windchill Dew Point Humidity Pressure Visibility Wind Dir Wind Speed Gust Speed Precip Events Conditions
12:53 AM 32.0 °F 26.4 °F 26.1 °F 79% 30.02 in 10.0 mi SSE 5.8 mph - N/A   Clear
1:53 AM 30.9 °F 24.3 °F 26.1 °F 82% 30.03 in 10.0 mi SSE 6.9 mph - N/A   Clear
2:53 AM 33.1 °F 27.7 °F 27.0 °F 78% 30.03 in 10.0 mi SSE 5.8 mph - N/A   Mostly Cloudy
3:53 AM 33.1 °F 26.9 °F 27.0 °F 78% 30.03 in 10.0 mi SE 6.9 mph - N/A   Overcast
4:53 AM 33.1 °F 28.7 °F 27.0 °F 78% 30.04 in 10.0 mi SSE 4.6 mph - N/A   Overcast
5:53 AM 33.1 °F 28.7 °F 27.0 °F 78% 30.04 in 10.0 mi SSE 4.6 mph - N/A   Mostly Cloudy
6:53 AM 34.0 °F 26.6 °F 27.0 °F 75% 30.03 in 10.0 mi South 9.2 mph - N/A   Overcast
7:53 AM 37.9 °F 30.9 °F 28.0 °F 68% 30.04 in 10.0 mi SSW 10.4 mph - N/A   Overcast
8:53 AM 42.1 °F 34.9 °F 28.0 °F 58% 30.05 in 10.0 mi WSW 13.8 mph - N/A   Overcast
9:53 AM 43.0 °F 33.3 °F 28.0 °F 56% 30.04 in 10.0 mi West 25.3 mph 33.4 mph N/A   Overcast
10:53 AM 43.0 °F 33.3 °F 28.9 °F 58% 30.07 in 10.0 mi West 25.3 mph 34.5 mph N/A   Overcast
11:53 AM 44.1 °F 34.0 °F 27.0 °F 51% 30.06 in 10.0 mi WSW 29.9 mph 34.5 mph N/A   Overcast
12:53 PM 43.0 °F 33.5 °F 27.0 °F 53% 30.06 in 10.0 mi West 24.2 mph 32.2 mph N/A   Overcast
1:35 PM 39.0 °F 30.3 °F 32.0 °F 76% 30.06 in 10.0 mi WSW 16.1 mph 25.3 mph 0.00 in Rain Light Rain
1:53 PM 39.0 °F 29.9 °F 33.1 °F 79% 30.08 in 10.0 mi WSW 17.3 mph 23.0 mph 0.00 in Rain Light Rain
2:53 PM 39.9 °F 32.9 °F 33.1 °F 77% 30.07 in 10.0 mi SSW 11.5 mph - 0.00 in   Overcast
3:53 PM 41.0 °F 33.1 °F 32.0 °F 70% 30.04 in 10.0 mi South 15.0 mph - N/A   Overcast
4:53 PM 41.0 °F 36.4 °F 32.0 °F 70% 30.04 in 10.0 mi SSE 6.9 mph - N/A   Overcast
5:53 PM 41.0 °F 34.7 °F 30.0 °F 65% 30.05 in 10.0 mi West 10.4 mph - N/A   Overcast
6:53 PM 41.0 °F 33.1 °F 30.0 °F 65% 30.07 in 10.0 mi WSW 15.0 mph 23.0 mph 0.00 in Rain Light Rain
7:53 PM 37.9 °F 32.1 °F 34.0 °F 86% 30.06 in 10.0 mi South 8.1 mph - 0.00 in   Overcast
8:53 PM 37.9 °F 34.4 °F 33.1 °F 83% 30.06 in 10.0 mi South 4.6 mph - N/A   Overcast
9:53 PM 37.9 °F 34.4 °F 32.0 °F 79% 30.06 in 10.0 mi West 4.6 mph - N/A   Overcast
11:53 PM 34.0 °F 31.0 °F 28.0 °F 79% 30.06 in 10.0 mi WSW 3.5 mph - N/A   Clear